This is the latest recevied weather packets stored in our database for station/object IV3CGM-1. If no packets are shown the sender has not sent any weather packets the latest 1 day(s).
| Time | Temp. | Humidity | Pressure | Rain* | Wind** | Luminosity | Snow |
|---|---|---|---|---|---|---|---|
| 1778011000 | 7.78° C | 99% | - | - | 1.79 m/s, 222° | - | - |
| 1778010425 | 7.78° C | 99% | - | - | 0.89 m/s, 233° | - | - |
| 1778009863 | 7.78° C | 99% | - | - | 2.24 m/s, 270° | - | - |
| 1778009249 | 7.78° C | 99% | - | - | 1.79 m/s, 257° | - | - |
| 1778008674 | 7.78° C | 99% | - | - | 2.24 m/s, 294° | - | - |
| 1778008098 | 7.78° C | 99% | - | - | 1.79 m/s, 294° | - | - |
| 1778007521 | 7.78° C | 99% | - | - | 0.89 m/s, 300° | - | - |
| 1778006958 | 7.78° C | 99% | - | - | 2.24 m/s, 300° | - | - |
| 1778006321 | 7.78° C | 99% | - | - | 1.34 m/s, 312° | - | - |
| 1778005720 | 7.78° C | 99% | - | - | 0 m/s | - | - |
| 1778005158 | 7.78° C | 99% | - | - | 0 m/s | - | - |
| 1778004546 | 7.78° C | 99% | - | - | 0.89 m/s, 300° | - | - |
| 1778003970 | 7.78° C | 99% | - | - | 2.24 m/s, 300° | - | - |
| 1778003393 | 7.78° C | 99% | - | - | 0.89 m/s, 304° | - | - |
| 1778002792 | 7.78° C | 99% | - | - | 1.34 m/s, 300° | - | - |
| 1778002203 | 7.78° C | 99% | - | - | 1.34 m/s, 307° | - | - |
| 1778001593 | 7.78° C | 99% | - | - | 1.79 m/s, 323° | - | - |
| 1778001015 | 7.78° C | 99% | - | - | 0.89 m/s, 323° | - | - |
| 1778000394 | 7.78° C | 99% | - | - | 1.34 m/s, 315° | - | - |
| 1777999781 | 7.78° C | 99% | - | - | 0.89 m/s, 30° | - | - |
| 1777999168 | 7.78° C | 99% | - | - | 0 m/s | - | - |
| 1777998569 | 7.78° C | 99% | - | - | 0 m/s | - | - |
| 1777997983 | 7.78° C | 99% | - | - | 0 m/s | - | - |
| 1777997342 | 7.78° C | 99% | - | - | 0.89 m/s, 60° | - | - |
| 1777996722 | 7.78° C | 99% | - | - | 1.34 m/s, 72° | - | - |
* Rain since midnight (hover to see other rain measurements)
** Current wind speed in m/s (hover to see current wind gust speed)